Weather History for Orlando International, FL

Change the Weather History Date:

Thursday, March 28, 2013

  Actual Average Record
Temperature  
Mean Temperature 56 °F 68 °F  
Max Temperature 73 °F 80 °F 92 °F (1994)
Min Temperature 38 °F 57 °F 38 °F (2013)
Degree Days  
Heating Degree Days 9 1  
Month to date heating degree days 143 56  
Since 1 July heating degree days 455 555  
Cooling Degree Days 0 4  
Month to date cooling degree days 45 103  
Year to date cooling degree days 245 207  
Growing Degree Days 5 (Base 50)    
Moisture  
Dew Point 35 °F    
Average Humidity 54    
Maximum Humidity 89    
Minimum Humidity 19    
Precipitation  
Precipitation 0.00 in 0.13 in 2.15 in (1964)
Month to date precipitation 1.27 3.38  
Year to date precipitation 2.18 8.11  
Sea Level Pressure  
Sea Level Pressure 30.27 in    
Wind  
Wind Speed 5 mph (North)    
Max Wind Speed 14 mph    
Max Gust Speed 21 mph    
Visibility 10 miles    
Events      
T = Trace of Precipitation, MM = Missing Value Source: NWS Daily Summary

Daily Weather History Graph

Daily Weather History Graph

Search for Another Location

Airport:

Trip Planner

Search our weather history database for the weather conditions in past years. The results will help you decide how hot, cold, wet, or windy it might be!

Date:

Astronomy

Mar. 28, 2013 Rise Set
Actual Time 7:19 AM EDT 7:41 PM EDT
Civil Twilight 6:56 AM EDT 8:04 PM EDT
Nautical Twilight 6:28 AM EDT 8:32 PM EDT
Astronomical Twilight 6:00 AM EDT 9:00 PM EDT
Moon 9:18 PM EDT (3/28) 7:56 AM EDT (3/28)
Length of Visible Light 13h 08m
Length of Day
12h 21m
Full, 98% of the Moon is Illuminated
Mar 28
Full
Apr 3
Last Quarter
Apr 10
New
Apr 18
First Quarter
Apr 25
Full

Hourly Weather History & Observations

Time (EDT) Temp. Windchill Dew Point Humidity Pressure Visibility Wind Dir Wind Speed Gust Speed Precip Events Conditions
12:53 AM 48.0 °F - 39.0 °F 71% 30.28 in 10.0 mi West 3.5 mph - N/A   Clear
1:53 AM 48.0 °F - 39.0 °F 71% 30.28 in 10.0 mi Calm Calm - N/A   Clear
2:53 AM 46.0 °F 43.9 °F 39.0 °F 76% 30.27 in 10.0 mi NW 4.6 mph - N/A   Clear
3:53 AM 46.0 °F 42.5 °F 39.0 °F 76% 30.26 in 10.0 mi NW 6.9 mph - N/A   Clear
4:53 AM 45.0 °F 41.8 °F 39.0 °F 80% 30.26 in 10.0 mi NW 5.8 mph - N/A   Clear
5:53 AM 43.0 °F - 39.0 °F 86% 30.27 in 10.0 mi Calm Calm - N/A   Clear
6:53 AM 42.1 °F 40.2 °F 37.9 °F 85% 30.27 in 10.0 mi NW 3.5 mph - N/A   Clear
7:53 AM 43.0 °F - 39.0 °F 86% 30.28 in 10.0 mi Calm Calm - N/A   Clear
8:53 AM 51.1 °F - 41.0 °F 68% 30.30 in 10.0 mi NNW 3.5 mph - N/A   Clear
9:53 AM 57.9 °F - 32.0 °F 37% 30.31 in 10.0 mi North 6.9 mph - N/A   Clear
10:53 AM 62.1 °F - 28.9 °F 29% 30.32 in 10.0 mi NNE 8.1 mph - N/A   Clear
11:53 AM 64.0 °F - 27.0 °F 25% 30.31 in 10.0 mi NNE 6.9 mph - N/A   Clear
12:53 PM 66.9 °F - 27.0 °F 22% 30.30 in 10.0 mi NNW 5.8 mph - N/A   Clear
1:53 PM 68.0 °F - 27.0 °F 21% 30.27 in 10.0 mi NW 9.2 mph - N/A   Clear
2:53 PM 70.0 °F - 27.0 °F 20% 30.24 in 10.0 mi NNW 9.2 mph - N/A   Clear
3:53 PM 72.0 °F - 28.0 °F 20% 30.22 in 10.0 mi Variable 5.8 mph - N/A   Clear
4:53 PM 72.0 °F - 28.0 °F 20% 30.20 in 10.0 mi Variable 3.5 mph - N/A   Partly Cloudy
5:53 PM 71.1 °F - 26.1 °F 19% 30.21 in 10.0 mi Calm Calm - N/A   Partly Cloudy
6:53 PM 66.9 °F - 37.0 °F 33% 30.22 in 10.0 mi ENE 11.5 mph - N/A   Partly Cloudy
7:53 PM 61.0 °F - 39.9 °F 46% 30.25 in 10.0 mi ENE 9.2 mph - N/A   Partly Cloudy
8:53 PM 57.0 °F - 41.0 °F 55% 30.27 in 10.0 mi East 6.9 mph - N/A   Clear
9:53 PM 57.0 °F - 42.1 °F 57% 30.28 in 10.0 mi East 5.8 mph - N/A   Partly Cloudy
10:53 PM 55.0 °F - 42.1 °F 62% 30.30 in 10.0 mi ENE 3.5 mph - N/A   Partly Cloudy
11:53 PM 54.0 °F - 42.1 °F 64% 30.30 in 10.0 mi Calm Calm - N/A   Partly Cloudy